Back to catalog

OPS 6026

DMSP 4A F1

AliveWeatherSSO
NORAD 2418·PAYLOAD·🇺🇸 United States

Launched Sep 16, 1966 from Vandenberg Space Force Base

Loading…

Next Passes (next 24 hours)

TLE

FreshSource: Space-Track

Epoch: Sep 14, 2026, 09:55 UTC

1 02418U 66082A   26257.41351338  .00000208  00000-0  68583-4 0  9991
2 02418  98.3543  48.8706 0116357 114.0412 247.3007 14.43943701125162

Track OPS 6026 in real time with AllMySat

Download on the App Store